Location: Kacice
(50.2463°N, 20.0393°E)
Time: 23:03:13
(UTC+00:00)

Daily predictions for brighter satellites

Satellite Brightness Start Highest point End
(mag) Time Altitude Azimuth Time Altitude Azimuth Time Altitude Azimuth
Cosmos 1607 4.2 15:05:25 10° SSW 15:11:41 66° ESE 15:18:05 10° NE
ATLAS 2AS CENTAUR R/B 3.4 15:07:08 10° NW 15:13:31 34° NNE 15:19:37 10° E
SL-8 R/B 4.2 15:10:22 10° W 15:15:04 61° SSW 15:19:47 10° ESE
Cosmos 1602 4.5 15:14:22 10° N 15:17:41 29° ENE 15:20:59 10° SE
RESURS DK-1 4.3 15:16:13 10° N 15:17:58 12° NNE 15:19:44 10° ENE
Cosmos 1943 3.5 15:12:44 10° NNW 15:18:10 46° NE 15:23:34 10° SE
CZ-4B R/B 4.4 15:16:17 10° ESE 15:20:20 25° ENE 15:24:19 10° N
Cosmos 1606 3.6 15:19:07 10° SSW 15:22:39 48° WNW 15:26:14 10° N
USA 305 2.6 15:18:52 10° WNW 15:22:41 86° NNE 15:26:33 10° ESE
Cosmos 1953 Rocket 4.0 15:23:43 10° NNW 15:28:11 69° W 15:32:33 10° S
SMAP 3.3 15:23:42 10° SE 15:28:11 49° ENE 15:32:41 10° N
SL-16 R/B 3.7 15:22:42 10° N 15:28:30 41° WNW 15:34:17 10° SW
Cosmos 1500 2.9 15:26:30 10° N 15:30:02 65° ENE 15:33:32 10° SSE
Cosmos 2297 Rocket 3.3 15:24:56 10° WSW 15:30:15 40° NW 15:35:35 10° NNE
Aureole 3 Rocket 3.6 15:26:20 10° NNW 15:30:57 57° W 15:34:25 10° S
Cosmos 2344 4.4 15:24:43 10° S 15:31:01 29° ESE 15:37:03 10° ENE
Helios 1B rocket 2.3 15:27:21 10° SSE 15:31:17 90° SW 15:35:16 10° NNW
Cosmos 407 Rocket 4.0 15:26:36 10° NNW 15:31:22 36° NE 15:36:05 10° ESE
CZ-4B R/B 4.0 15:30:50 10° SE 15:34:12 40° ENE 15:37:39 10° N
Cosmos 2219 3.3 15:31:04 10° SSW 15:36:42 82° WNW 15:42:23 10° NNE
H-2A R/B 4.4 15:33:59 10° SSW 15:38:07 25° W 15:42:14 10° NW
Cosmos 2251 Rocket 3.9 15:33:48 10° NNW 15:38:55 44° ENE 15:44:02 10° SE
Cosmos 405 Rocket 2.9 15:37:25 10° SSW 15:41:14 72° WNW 15:45:06 10° N
ISS -1.8 15:41:41 10° W 15:44:40 31° SSW 15:47:41 10° SSE
Lacrosse 5 3.5 15:46:42 10° SSE 15:50:02 18° SE 15:52:30 13° E
Cosmos 1833 Rocket 4.4 15:47:17 10° N 15:50:20 14° NNE 15:52:05 13° NE
Cosmos 724 4.4 15:45:35 10° SW 15:51:48 90° SE 15:57:43 11° NE
Cosmos 2082 3.7 15:46:12 10° SSW 15:51:50 86° ESE 15:57:30 10° NNE
Cosmos 2151 3.7 15:47:39 10° NNW 15:51:51 56° W 15:56:01 10° S
COSMO-SKYMED 1 3.9 15:52:17 15° ENE 15:54:17 20° E 15:57:32 10° SE
Cosmos-2242 3.4 15:50:43 10° SSE 15:54:48 42° E 15:58:54 10° NNE
USA 234 4.0 15:50:14 14° ENE 15:55:23 36° SE 16:01:19 10° SSW
Lacrosse 4 Rocket 1.4 15:51:32 10° NNW 15:55:55 78° NE 16:00:09 10° SE
Cosmos 2058 Rocket 3.4 15:52:47 10° SSW 15:57:12 69° W 16:01:37 10° N
Meteor 1-25 Rocket 4.3 15:53:30 10° N 15:59:05 53° ENE 16:04:32 10° SSE
Cosmos 1023 Rocket 4.4 15:55:26 10° NNW 16:00:37 79° ENE 16:05:44 10° SSE
Cosmos 1190 Rocket 4.4 15:58:25 10° NNW 16:03:25 39° ENE 16:08:22 10° SE
Cosmos 1818 4.3 16:00:07 10° S 16:04:59 35° ESE 16:08:07 19° ENE
APEX 3.4 16:02:39 10° S 16:05:16 29° ESE 16:05:47 27° E
Cosmos 2221 4.2 16:02:57 10° ESE 16:04:18 14° ESE 16:04:18 14° ESE
Cosmos 1812 2.6 16:06:30 10° S 16:10:06 54° E 16:13:14 13° NNE
AQUARIUS 4.2 16:08:49 10° SSE 16:13:17 85° WSW 16:17:47 10° NNW
YAOGAN 11 4.5 16:09:18 10° N 16:13:50 70° WNW 16:18:21 10° SSW
CZ-2C R/B 4.1 16:12:38 10° SSW 16:15:59 38° W 16:19:23 10° NNW
USA 276 2.0 16:14:30 10° WSW 16:16:51 45° SSE 16:17:13 40° SE
Cosmos 2263 Rocket 2.4 16:12:32 10° SW 16:18:05 72° WNW 16:23:22 12° NNE
Cosmos 1844 Rocket 3.5 16:13:41 10° SSE 16:18:25 30° ESE 16:20:21 24° ENE
Cosmos 1092 Rocket 4.2 16:15:23 10° SSE 16:21:11 46° E 16:27:01 10° NNE
Nadezhda 4 Rocket 3.9 16:15:07 10° S 16:21:15 81° E 16:27:24 10° NNE
USA 307 4.3 16:22:08 10° WNW 16:25:36 32° SW 16:29:00 10° SSE
Cosmos 1766 Rocket 4.1 16:21:57 10° N 16:25:57 33° ENE 16:29:52 10° SE
Cosmos 2227 4.2 16:20:51 10° SSW 16:26:32 64° ESE 16:30:34 20° NE
Cosmos 2227 Rocket 3.8 16:21:49 10° WSW 16:26:43 29° NW 16:31:39 10° NNE
Cosmos 2082 Rocket 4.1 16:25:16 10° N 16:27:15 12° NNE 16:27:31 12° NNE
Meteor 1-20 Rocket 4.3 16:21:41 10° NNW 16:27:16 83° W 16:32:56 10° S
Cosmos 1140 Rocket 3.8 16:23:02 10° NNW 16:28:12 68° WSW 16:33:17 10° S
YAOGAN 1 3.5 16:29:59 28° NE 16:29:59 28° NE 16:32:55 10° N
Meteor 1-5 Rocket 4.4 16:24:32 10° N 16:30:02 49° ENE 16:35:41 10° SSE
ADEOS 3.7 16:25:41 10° SE 16:30:42 50° ENE 16:35:45 10° N
Cosmos 1933 3.6 16:27:44 10° SSE 16:31:31 43° E 16:32:19 37° ENE
Cosmos 1603 3.9 16:32:43 10° NNW 16:38:25 75° WSW 16:44:03 10° SSE
CBERS 1 LM4 rocket 4.2 16:36:10 10° SSE 16:40:58 87° ENE 16:45:44 10° NNW
Cosmos 1428 Rocket 4.4 16:35:20 10° S 16:41:37 77° E 16:47:55 10° NNE
SKYMED 2 3.6 16:40:54 32° NE 16:42:41 57° E 16:46:57 10° S
Meteor 1-31 Rocket 4.4 16:39:32 10° SSW 16:42:56 34° W 16:46:22 10° NNW
CZ-4B R/B 3.7 16:44:59 34° NNE 16:44:59 34° NNE 16:47:51 10° N
SL-08 R/B 3.5 16:46:50 43° ENE 16:47:24 45° E 16:51:51 10° S
Cosmos 192 4.4 16:43:52 10° S 16:48:35 51° ESE 16:49:36 43° ENE
Meteor 2-17 Rocket 4.3 16:44:13 10° S 16:50:19 73° E 16:56:26 10° NNE
ATLAS CENTAUR R/B 4.0 16:48:08 10° WNW 16:52:29 43° SW 17:00:31 10° SSE
RESURS DK-1 2.5 16:52:38 10° NNW 16:56:12 52° NNE 16:56:12 52° NNE
Cosmos 676 Rocket 3.9 16:52:09 10° NNW 16:57:27 63° ENE 16:59:43 33° SE
Cosmos 1627 Rocket 4.4 16:51:43 10° S 16:58:00 81° E 17:04:25 10° NNE
CZ-4B R/B 4.1 16:53:43 10° S 16:58:41 55° WSW 17:03:33 10° NNW
EO 1 Delta rocket 4.3 16:53:19 10° SSE 16:59:49 67° ENE 17:05:02 10° N
Helios 1A 3.3 16:58:42 22° N 17:01:19 64° WNW 17:05:24 10° SSW
Cosmos 1782 2.8 16:58:05 10° SSW 17:02:00 77° W 17:03:03 47° N
Cosmos 1812 Rocket 4.3 16:58:14 10° SSW 17:02:28 52° WNW 17:06:22 12° N
ATLAS 2AS CENTAUR R/B 2.5 16:58:22 10° NW 17:05:22 83° NE 17:09:09 28° SE
NOAA 6 4.5 17:01:26 10° S 17:06:31 62° WSW 17:11:37 10° NNW
Radarsat Rocket 4.4 17:07:14 10° S 17:12:58 61° WSW 17:19:05 10° NNW
CZ-4B DEB 4.1 17:11:06 22° SSE 17:14:43 69° ENE 17:20:15 10° NNW
ADEOS Rocket 4.3 17:22:48 23° NNE 17:22:48 23° NNE 17:25:16 10° N
SME Rocket 4.4 17:21:34 10° SSE 17:27:21 87° WSW 17:36:32 10° NNW
Cosmos 1954 Rocket 4.2 17:22:56 10° NNW 17:28:11 67° WSW 17:31:28 23° S
Cosmos 2056 Rocket 3.4 17:23:11 10° SSW 17:28:36 83° ESE 17:28:45 81° ENE
COSMOS 2455 3.9 17:23:43 10° S 17:27:03 29° SSE 17:27:03 29° SSE
Timation 2 Rocket 3.7 17:23:43 10° SSW 17:29:41 84° ESE 17:30:41 64° NE
Cosmos 1844 3.6 17:24:06 10° SSW 17:29:53 83° ESE 17:30:24 74° NE
COSMO-SKYMED 1 3.3 17:29:31 38° NNW 17:30:44 50° WNW 17:34:56 10° SW
Lacrosse 5 2.0 17:27:16 10° SW 17:31:43 65° SSW 17:31:43 65° SSW
Cosmos 1833 Rocket 3.7 17:30:20 10° NNW 17:33:48 33° N 17:33:48 33° N
Meteor 1-14 Rocket 4.3 17:31:33 10° N 17:36:08 61° N 17:36:08 61° N
S3M 4.4 17:31:06 10° N 17:35:25 45° NNE 17:35:25 45° NNE
USA 234 3.1 17:37:35 62° NE 17:38:52 88° NNW 17:45:26 10° WSW
Cosmos 1553 Rocket 4.1 17:32:52 10° NNW 17:39:13 76° W 17:45:24 10° S
PAYLOAD B 4.3 17:42:07 65° N 17:42:07 65° N 17:46:51 10° NNW
Cosmos 2221 3.8 17:38:22 10° SSW 17:41:02 35° SW 17:41:02 35° SW
Cosmos 2344 3.6 17:37:14 10° SW 17:44:38 71° NW 17:47:05 45° NNE
Cosmos 1818 4.1 17:43:04 10° WSW 17:48:24 53° NW 17:48:46 52° NNW
Cosmos 1371 Rocket 4.4 17:47:43 10° SW 17:52:33 63° W 17:52:33 63° W
Cosmos 1844 Rocket 3.2 17:56:34 10° SW 18:02:01 54° NW 18:02:02 54° NW
Cosmos 2263 Rocket 4.3 17:59:04 10° W 18:03:02 19° NW 18:05:03 16° N
Cosmos 2082 Rocket 4.3 18:08:08 10° NNW 18:09:22 16° N 18:09:22 16° N
ATLAS 2AS CENTAUR R/B 4.3 18:50:07 10° WNW 18:55:32 26° WSW 18:56:38 25° SW
